Simultaneous Nadir Overpasses (SNOs) Predictions

Prediction of SNOs between AQUA and GOES-15 Satellite Orbit:

Table of predicted SNOs for the next 14.0 days since TLE Epoch: 4/5/2014
Index Date Time (AQUA) AQUA Lat,Lon GOES-15 Lat,Lon Distance(km) Time Diff (sec)
1 04/05/2014 10:26:41 -0.54,-132.69 0.00,-135.34 300.69 80
2 04/05/2014 22:48:05 -0.56,-137.89 -0.01,-135.34 289.26 80
3 04/07/2014 22:35:52 0.08,-134.93 -0.01,-135.38 51.48 80
4 04/09/2014 22:23:38 0.70,-131.96 -0.01,-135.42 392.06 80
5 04/10/2014 10:44:53 0.38,-137.12 0.01,-135.43 192.23 80
6 04/12/2014 10:32:39 -0.28,-134.16 0.01,-135.46 148.03 80
7 04/12/2014 22:54:01 -0.85,-139.34 -0.01,-135.46 442.26 80
8 04/14/2014 10:20:24 -0.91,-131.19 0.00,-135.48 487.88 80
9 04/14/2014 22:41:47 -0.20,-136.38 -0.01,-135.48 102.51 80
10 04/16/2014 22:29:31 0.42,-133.40 -0.00,-135.49 236.68 80
11 04/17/2014 10:50:45 0.64,-138.56 0.00,-135.50 347.96 80




NCC Satellite Simultaneous Nadir Overpasses (SNOs) Prediction Service
